This is the latest recevied weather packets stored in our database for station/object NorthRyde. If no packets are shown the sender has not sent any weather packets the latest 10 day(s).
| Time | Temp. | Humidity | Pressure | Rain* | Wind** | Luminosity | Snow |
|---|---|---|---|---|---|---|---|
| 1777429099 | 24.44° C | 62% | 1029.3 hPa | 0 mm | - | 703 W/m² | - |
| 1777429032 | 23.89° C | 63% | 1029.3 hPa | 0 mm | - | 703 W/m² | - |
| 1777428974 | 23.89° C | 64% | 1029.2 hPa | 0 mm | - | 708 W/m² | - |
| 1777428911 | 23.33° C | 64% | 1029.3 hPa | 0 mm | - | 712 W/m² | - |
| 1777428847 | 23.33° C | 64% | 1029.2 hPa | 0 mm | - | 710 W/m² | - |
| 1777428794 | 23.33° C | 63% | 1029.2 hPa | 0 mm | - | 223 W/m² | - |
| 1777428729 | 23.33° C | 64% | 1029.3 hPa | 0 mm | - | 223 W/m² | - |
| 1777428672 | 23.33° C | 64% | 1029.3 hPa | 0 mm | - | 160 W/m² | - |
| 1777428611 | 23.33° C | 63% | 1029.3 hPa | 0 mm | - | 206 W/m² | - |
| 1777428550 | 23.33° C | 63% | 1029.4 hPa | 0 mm | - | 169 W/m² | - |
| 1777428494 | 23.33° C | 62% | 1029.4 hPa | 0 mm | - | 155 W/m² | - |
| 1777428428 | 23.89° C | 62% | 1029.5 hPa | 0 mm | - | 158 W/m² | - |
| 1777428369 | 23.89° C | 62% | 1029.5 hPa | 0 mm | - | 151 W/m² | - |
| 1777428310 | 23.89° C | 62% | 1029.4 hPa | 0 mm | - | 165 W/m² | - |
| 1777428249 | 23.89° C | 62% | 1029.6 hPa | 0 mm | - | 127 W/m² | - |
| 1777428193 | 23.89° C | 62% | 1029.6 hPa | 0 mm | - | 123 W/m² | - |
| 1777428129 | 23.89° C | 63% | 1029.6 hPa | 0 mm | - | 376 W/m² | - |
| 1777428071 | 23.89° C | 63% | 1029.5 hPa | 0 mm | - | 700 W/m² | - |
| 1777428010 | 23.89° C | 62% | 1029.6 hPa | 0 mm | - | 700 W/m² | - |
| 1777427950 | 23.89° C | 63% | 1029.6 hPa | 0 mm | - | 696 W/m² | - |
| 1777427877 | 23.89° C | 62% | 1029.7 hPa | 0 mm | - | 691 W/m² | - |
| 1777427817 | 23.89° C | 62% | 1029.6 hPa | 0 mm | - | 680 W/m² | - |
| 1777427756 | 23.89° C | 62% | 1029.7 hPa | 0 mm | - | 675 W/m² | - |
| 1777427695 | 23.89° C | 63% | 1029.7 hPa | 0 mm | - | 679 W/m² | - |
| 1777427630 | 23.89° C | 63% | 1029.7 hPa | 0 mm | - | 671 W/m² | - |
* Rain latest hour (hover to see other rain measurements)
** Current wind speed in m/s (hover to see current wind gust speed)